CZ-6A DEB

Satellite information

Favourite Embed

Satellite Type and Status

DEBRISIN ORBIT

Key statistics

Satellite CZ-6A DEB at a glance.

Uptime

494

Days in orbit

Revolutions

≈ 14.2

Per day

Orbit

LEO

Low Earth Orbit

Inclination

88.7

Latest

Satellite identification and parameters

Extended collection of information and parameters for CZ-6A DEB.

Object identification

Identified? True

Debris? True

Object name: CZ-6A DEB

International designator: 2024-140VW

Object number (NORAD): 61357

Object ID (CCSDS): 61357

Country: PEOPLES REPUBLIC OF CHINA (PRC)

Current information (Y/N): Y

RCS size: SMALL

Orbital parameters

Period: 101.185 minutes

Inclination: 88.6775 deg

SMA: 7192.882 km

Apoapsis: 891.914 km

Periapsis: 737.579 km

RAAN: 277.3175 deg

Eccentricy: 0.0107283

Argument of periapsis: 10.3393 deg

Mean anomaly: 349.9969 deg

Mean motion: 14.23142457 rev/day

Mean motion (dot): 0.0000904 rev/day2

B* drag term: 0.0037661434 1/REarth

Two-line elements (TLE)

Creation date: Dec. 11, 2025, 10:54 a.m.

Reference frame: TEME

Reference center: EARTH

Epoch: Dec. 11, 2025, 5:51 a.m. UTC

TLE line 0: 0 CZ-6A DEB

TLE line 1: 1 61357U 24140VW 25345.24417686 .00009040 00000-0 37661-2 0 9998

TLE line 2: 2 61357 88.6775 277.3175 0107283 10.3393 349.9969 14.23142457 65831

Live tracking on map

Real-time ground track for satellite CZ-6A DEB.

In-orbit conjunctions

A list of the most updated potential collisions computed for object CZ-6A DEB.

Target Orbit TCA Probability of collision Miss distance Type
COSMOS 1275 DEB LEO 2025-09-27 20:35:26 0.0001950844 74.0 (m) DEBRIS
FENGYUN 1C DEB SSO 2025-06-12 15:38:12 0.0002277617 115.0 (m) DEBRIS
FENGYUN 1C DEB SSO 2025-01-07 17:42:51 0.0001502968 579.0 (m) DEBRIS

Associated space launch

18 Low Earth Orbit communication satellites with Ku, Q and V band payloads for the G60 constellation operated by Shanghai Spacecom Satellite Technology (SSST) with funding backed by the Shanghai local government. Initial constellation will consist of 1296 satellites by 2027 with long term plans to expand it to 12000 satellites.

CZ-6A DEB was lifted into orbit during the mission ‘Long March 6A | G60 Polar Group 01’, on board a Long March 6A space rocket.

The launch took place on Aug. 6, 2024, 6:42 a.m. from Launch Complex 9A.

For more information about the launch, click the button.

Launch to space Long March 6A | G60 Polar Group 01
Long March 6A | G60 Polar Group 01

Agency: N/A

Status: Launch Successful

Launch date: Aug. 6, 2024, 6:42 a.m. UTC

Rocket: Long March 6A

Launch pad: Launch Complex 9A

Location: Taiyuan Satellite Launch Center, People's Republic of China

...

Latest news about this satellite

News about space launch
Brightness of first Chinese broadband constellation satellites alarms astronomers

The first satellites of a Chinese broadband constellation are significantly brighter than those of Western systems, posing a new challenge for astronomers.

News about space launch
Chinese rocket stage breaks up into cloud of more than 700 pieces of space debris

HELSINKI — A Chinese Long March 6A rocket’s upper stage has fragmented into a cloud of over 700 pieces of space debris, adding to concerns about long-term orbital safety. China […]

News about space launch
China's Thousand Sails Megaconstellation Kicks Off with Dangerous Debris Field

China's Thousand Sails Megaconstellation Kicks Off with Dangerous Debris Field


Newsletter sign-up

Weekly statistics, charts and insights to help you stay on top of the space industry.